FIN6WR EFHK-EVRA

Flight info

Callsign FIN6WR
Flight time N/A
Altitude 30000
Route KOIVU Y123 LARTI DCT AMI DCT SULUN/N0478F290 DCT LUTAL
Aircraft A359/H-SDE2E3GHIJ3J4J5LM1ORWXY/LB1D1

Departure

Time 2026-04-24 16:49
Airport Helsinki Vantaa Airport (EFHK)

Arrival

Time N/A
Airport Riga International Airport (EVRA)
Time Latitude Longitude Altitude Speed Heading
2026-04-24 16:23 60.31671 24.96021 168 ft 0 kts 137°
2026-04-24 16:40 60.31677 24.96010 173 ft 3 kts 137°
2026-04-24 16:40 60.31694 24.95978 173 ft 3 kts 137°
2026-04-24 16:40 60.31709 24.95951 173 ft 3 kts 146°
2026-04-24 16:40 60.31726 24.95932 173 ft 3 kts 175°
2026-04-24 16:41 60.31741 24.95933 173 ft 3 kts 213°
2026-04-24 16:41 60.31757 24.95962 173 ft 3 kts 231°
2026-04-24 16:41 60.31771 24.95997 173 ft 2 kts 227°
2026-04-24 16:41 60.31772 24.95998 173 ft 0 kts 227°
2026-04-24 16:44 60.31768 24.95989 173 ft 4 kts 227°
2026-04-24 16:45 60.31710 24.95863 173 ft 16 kts 227°
2026-04-24 16:45 60.31648 24.95702 173 ft 13 kts 259°
2026-04-24 16:45 60.31699 24.95548 174 ft 14 kts 313°
2026-04-24 16:45 60.31700 24.95461 177 ft 9 kts 243°
2026-04-24 16:46 60.31632 24.95302 176 ft 19 kts 229°
2026-04-24 16:46 60.31536 24.95094 176 ft 22 kts 227°
2026-04-24 16:46 60.31424 24.94847 172 ft 26 kts 227°
2026-04-24 16:46 60.31289 24.94546 165 ft 32 kts 228°
2026-04-24 16:47 60.31220 24.94396 165 ft 8 kts 226°
2026-04-24 16:47 60.31145 24.94235 164 ft 19 kts 227°
2026-04-24 16:47 60.31061 24.94045 164 ft 17 kts 228°
2026-04-24 16:47 60.31048 24.93829 165 ft 17 kts 304°
2026-04-24 16:48 60.31135 24.93701 164 ft 14 kts 346°
2026-04-24 16:48 60.31189 24.93771 165 ft 0 kts 48°
2026-04-24 16:48 60.31190 24.93772 165 ft 2 kts 48°
2026-04-24 16:48 60.31347 24.94114 167 ft 75 kts 46°
2026-04-24 16:49 60.31880 24.95289 181 ft 149 kts 48°
2026-04-24 16:49 60.32664 24.97029 733 ft 167 kts 44°
2026-04-24 16:49 60.33423 24.98689 1908 ft 156 kts 42°
2026-04-24 16:49 60.34223 25.00410 2488 ft 179 kts 42°
2026-04-24 16:50 60.34815 25.01656 2787 ft 193 kts 42°
2026-04-24 16:50 60.36207 25.04469 3293 ft 230 kts 41°
2026-04-24 16:50 60.37369 25.06863 3773 ft 252 kts 44°
2026-04-24 16:50 60.38508 25.09580 4716 ft 255 kts 49°
2026-04-24 16:51 60.39266 25.12839 5676 ft 262 kts 76°
2026-04-24 16:51 60.39468 25.16518 6614 ft 266 kts 83°
2026-04-24 16:51 60.39260 25.20289 7413 ft 278 kts 102°
2026-04-24 16:51 60.38226 25.23694 8193 ft 296 kts 133°
2026-04-24 16:52 60.36405 25.25738 8959 ft 309 kts 165°
2026-04-24 16:52 60.34249 25.25790 9696 ft 314 kts 197°
2026-04-24 16:52 60.32301 25.23818 10175 ft 319 kts 226°
2026-04-24 16:52 60.30868 25.20340 10508 ft 329 kts 242°
2026-04-24 16:53 60.29536 25.16424 10883 ft 346 kts 241°
2026-04-24 16:53 60.28099 25.12445 11497 ft 354 kts 239°
2026-04-24 16:53 60.26596 25.08544 12141 ft 360 kts 238°
2026-04-24 16:53 60.24976 25.04617 12792 ft 367 kts 236°
2026-04-24 16:54 60.23139 25.00922 13432 ft 380 kts 225°
2026-04-24 16:54 60.20864 24.98058 14009 ft 392 kts 211°
2026-04-24 16:54 60.18369 24.95705 14533 ft 400 kts 208°
2026-04-24 16:54 60.15803 24.93437 15089 ft 405 kts 208°
2026-04-24 16:55 60.13199 24.91169 15643 ft 410 kts 208°
2026-04-24 16:55 60.10562 24.88883 16189 ft 415 kts 208°
2026-04-24 16:55 60.07930 24.86607 16699 ft 420 kts 208°
2026-04-24 16:55 60.05228 24.84276 17246 ft 425 kts 208°
2026-04-24 16:56 60.02497 24.81926 17778 ft 429 kts 208°
2026-04-24 16:56 59.99738 24.79557 18264 ft 434 kts 208°
2026-04-24 16:56 59.96945 24.77162 18737 ft 438 kts 208°
2026-04-24 16:56 59.95084 24.75570 19047 ft 440 kts 208°
2026-04-24 16:57 59.92259 24.73158 19529 ft 443 kts 208°
2026-04-24 16:57 59.89416 24.70733 20021 ft 446 kts 208°
2026-04-24 16:57 59.86547 24.68291 20473 ft 450 kts 208°
2026-04-24 16:57 59.83598 24.66077 20925 ft 456 kts 202°
2026-04-24 16:58 59.80526 24.64308 21392 ft 461 kts 198°
2026-04-24 16:58 59.77535 24.62859 21832 ft 465 kts 196°
2026-04-24 16:58 59.74351 24.61446 22267 ft 469 kts 195°
2026-04-24 16:58 59.71142 24.60054 22691 ft 473 kts 195°
2026-04-24 16:59 59.67972 24.58554 23117 ft 474 kts 200°
2026-04-24 16:59 59.64859 24.56418 23526 ft 474 kts 205°
2026-04-24 16:59 59.58710 24.51489 24205 ft 480 kts 208°
2026-04-24 17:00 59.55628 24.48873 24565 ft 483 kts 208°
2026-04-24 17:00 59.49422 24.43576 25287 ft 490 kts 208°
2026-04-24 17:00 59.46277 24.40916 25659 ft 494 kts 208°
2026-04-24 17:01 59.39903 24.35580 26474 ft 501 kts 208°
2026-04-24 17:01 59.36678 24.32898 26882 ft 505 kts 208°
2026-04-24 17:02 59.30155 24.27499 27744 ft 513 kts 208°
2026-04-24 17:02 59.26855 24.24910 28189 ft 520 kts 203°
2026-04-24 17:02 59.23409 24.22639 28631 ft 524 kts 202°
2026-04-24 17:02 59.19941 24.20470 28745 ft 524 kts 201°
2026-04-24 17:03 59.09415 24.14164 28764 ft 527 kts 201°
2026-04-24 17:04 59.02446 24.10015 28775 ft 526 kts 201°
2026-04-24 17:04 58.95311 24.06702 28795 ft 530 kts 187°
2026-04-24 17:04 58.91630 24.06061 28796 ft 530 kts 186°
2026-04-24 17:05 58.84266 24.04960 28795 ft 530 kts 185°
2026-04-24 17:06 58.73256 24.03348 28678 ft 533 kts 185°
2026-04-24 17:06 58.65646 24.02237 28576 ft 557 kts 185°
2026-04-24 17:06 58.61782 24.01677 27825 ft 556 kts 185°
2026-04-24 17:07 58.57963 24.01125 26834 ft 557 kts 185°
2026-04-24 17:07 58.54106 24.00569 25970 ft 555 kts 185°
2026-04-24 17:07 58.46492 23.99475 24324 ft 532 kts 185°
2026-04-24 17:08 58.39300 23.98447 20700 ft 508 kts 186°
2026-04-24 17:08 58.35812 23.97949 19192 ft 493 kts 186°
2026-04-24 17:08 58.32481 23.97476 18371 ft 465 kts 186°
2026-04-24 17:09 58.26292 23.96595 17806 ft 443 kts 186°
2026-04-24 17:09 58.20096 23.95706 17475 ft 457 kts 186°
2026-04-24 17:10 58.16909 23.95254 17211 ft 459 kts 186°
2026-04-24 17:10 58.07355 23.94038 16806 ft 456 kts 180°
2026-04-24 17:11 57.98034 23.97158 16110 ft 451 kts 166°
2026-04-24 17:12 57.82914 24.03810 14854 ft 442 kts 166°